This demonstration page uses our WeatherBlox Daily Observations layout. Learn more.

Left ArrowRight Arrow

40.92945, -100.16068

Hourly Observations for October 25, 2018

Temp ( °F °C ) Dew Point ( °F °C ) Humidity (%) Winds ( mph kmh ) Pressure ( in mb ) Visibility ( mi km ) Precip ( " mm )
12:15 am 00:15 Cloudy with Drizzle 48 8.7 46 7.8 94 94 S 8 13 30.06 1018 10 16.0934 0 0
12:35 am 00:35 Cloudy with Light Rain 47 8.5 46 7.5 94 94 S 5 7 30.06 1018 10 16.0934 0.01 0.254
12:55 am 00:55 Cloudy with Drizzle 47 8.5 45 7.2 92 92 S 8 13 30.06 1018 10 16.0934 0.01 0.254
1:15 am 01:15 Cloudy with Drizzle 47 8.3 45 7.2 93 93 S 6 9 30.06 1018 10 16.0934 0.01 0.254
1:35 am 01:35 Cloudy with Rain 47 8.2 45 7.1 93 93 S 6 9 30.06 1018 10 16.0934 0.03 0.762
1:55 am 01:55 Cloudy with Light Rain 47 8.1 45 7.1 93 93 S 6 9 30.06 1018 10 16.0934 0.04 1.016
2:15 am 02:15 Cloudy with Light Rain 46 8 45 7 93 93 S 5 7 30.06 1018 10 16.0934 0.02 0.508
2:35 am 02:35 Cloudy with Light Rain 47 8.1 45 7.1 93 93 S 7 11 30.06 1018 10 16.0934 0.03 0.762
2:55 am 02:55 Cloudy with Light Rain 46 8 45 7 93 93 S 8 13 30.06 1018 10 16.0934 0.04 1.016
3:15 am 03:15 Cloudy with Light Rain 46 8 44 6.8 92 92 SSW 8 13 30.06 1018 10 16.0934 0.02 0.508
3:35 am 03:35 Cloudy with Light Rain 46 7.8 44 6.5 92 92 SSW 9 15 30.06 1018 10 16.0934 0.03 0.762
3:55 am 03:55 Cloudy with Light Rain 46 7.6 43 6.3 92 92 S 9 15 30.03 1017 10 16.0934 0.04 1.016
4:15 am 04:15 Cloudy with Rain 45 7.3 43 6.1 92 92 S 8 13 30.03 1017 10 16.0934 0.01 0.254
4:35 am 04:35 Cloudy with Drizzle 45 7.2 43 6 92 92 S 8 13 30.03 1017 10 16.0934 0.01 0.254
4:55 am 04:55 Cloudy with Rain 45 7.2 43 6.1 93 93 S 7 11 30.03 1017 10 16.0934 0.01 0.254
5:15 am 05:15 Cloudy with Drizzle 45 7.2 43 6.1 93 93 S 7 11 30.03 1017 10 16.0934 0 0
5:35 am 05:35 Cloudy with Drizzle 45 7.1 43 6.1 93 93 S 5 7 30 1016 10 16.0934 0 0
5:55 am 05:55 Cloudy with Light Rain 45 7.2 43 6.2 93 93 S 6 9 30 1016 10 16.0934 0 0
6:15 am 06:15 Cloudy with Light Rain 45 7.2 43 6.2 93 93 S 5 7 30.03 1017 10 16.0934 0.01 0.254
6:35 am 06:35 Cloudy with Light Rain 45 7.2 43 6.1 93 93 S 6 9 30.03 1017 10 16.0934 0.02 0.508
6:55 am 06:55 Cloudy with Light Rain 45 7.1 43 6.1 93 93 SSE 6 9 30.03 1017 10 16.0934 0.03 0.762
7:15 am 07:15 Cloudy with Drizzle 45 7.1 43 6.1 93 93 S 6 9 30.03 1017 10 16.0934 0 0
7:35 am 07:35 Cloudy with Drizzle 45 7.1 43 6.1 93 93 S 6 9 30.03 1017 10 16.0934 0 0
7:55 am 07:55 Cloudy with Drizzle 45 7.1 43 6.1 93 93 S 5 7 30 1016 10 16.0934 0 0
8:15 am 08:15 Cloudy with Light Rain 45 7.1 43 6.1 93 93 S 6 9 30 1016 10 16.0934 0.01 0.254
8:35 am 08:35 Cloudy with Rain 45 7.1 43 6.1 93 93 S 6 9 30.03 1017 10 16.0934 0.03 0.762
8:55 am 08:55 Cloudy with Drizzle 45 7.2 43 6.2 93 93 S 5 7 30.03 1017 10 16.0934 0.03 0.762
9:15 am 09:15 Cloudy with Drizzle 45 7.3 43 6.3 93 93 S 5 7 30.03 1017 10 16.0934 0 0
9:35 am 09:35 Cloudy with Drizzle 46 7.5 44 6.5 93 93 S 6 9 30.03 1017 10 16.0934 0 0
9:55 am 09:55 Cloudy with Drizzle 46 7.6 44 6.5 93 93 S 7 11 30.03 1017 10 16.0934 0 0
10:15 am 10:15 Cloudy 46 7.7 43 6.3 91 91 S 6 9 30.03 1017 10 16.0934 0.01 0.254
10:35 am 10:35 Cloudy with Drizzle 46 7.8 43 6.3 90 90 S 8 13 30.03 1017 10 16.0934 0.01 0.254
10:55 am 10:55 Cloudy with Drizzle 46 7.8 43 6.2 90 90 S 6 9 30.03 1017 10 16.0934 0.01 0.254
11:15 am 11:15 Cloudy 46 8 44 6.4 90 90 SSW 6 9 30.03 1017 10 16.0934 0 0
11:35 am 11:35 Cloudy 47 8.3 44 6.5 89 89 SSW 5 7 30.03 1017 10 16.0934 0 0
11:55 am 11:55 Cloudy 47 8.5 43 6.2 86 86 S 5 7 30.03 1017 10 16.0934 0 0
12:15 pm 12:15 Cloudy 47 8.5 43 6.3 86 86 S 6 9 30 1016 10 16.0934 0 0
12:35 pm 12:35 Cloudy 48 9 44 6.5 85 85 S 7 11 30 1016 10 16.0934 0 0
12:55 pm 12:55 Cloudy 48 9.1 43 6.3 83 83 SW 5 7 30 1016 10 16.0934 0 0
1:15 pm 13:15 Cloudy 49 9.2 43 6.2 82 82 SSW 6 9 30 1016 10 16.0934 0 0
1:35 pm 13:35 Cloudy 49 9.3 43 6.1 81 81 SW 5 7 30 1016 10 16.0934 0 0
1:55 pm 13:55 Cloudy 49 9.7 44 6.7 82 82 SSW 7 11 29.94 1014 10 16.0934 0 0
2:15 pm 14:15 Cloudy 50 10 43 6.3 78 78 SW 6 9 29.94 1014 10 16.0934 0 0
2:35 pm 14:35 Cloudy 50 10.2 44 6.4 78 78 SW 3 6 29.94 1014 10 16.0934 0 0
2:55 pm 14:55 Cloudy 50 10.2 43 6.1 76 76 SW 6 9 29.91 1013 10 16.0934 0 0
3:15 pm 15:15 Cloudy 51 10.4 44 6.4 76 76 WSW 5 7 29.91 1013 10 16.0934 0 0
3:35 pm 15:35 Cloudy 51 10.5 44 6.8 78 78 SW 6 9 29.91 1013 10 16.0934 0 0
3:55 pm 15:55 Cloudy 51 10.6 44 6.6 77 77 WSW 6 9 29.91 1013 10 16.0934 0 0
4:15 pm 16:15 Cloudy 51 10.7 44 6.4 75 75 W 5 7 29.91 1013 10 16.0934 0 0
4:35 pm 16:35 Cloudy 51 10.8 44 6.4 74 74 WSW 5 7 29.91 1013 10 16.0934 0 0
4:55 pm 16:55 Cloudy 52 11 44 6.5 74 74 SW 3 6 29.91 1013 10 16.0934 0 0
5:15 pm 17:15 Cloudy 52 11.1 44 6.4 73 73 SW 5 7 29.91 1013 10 16.0934 0 0
5:35 pm 17:35 Cloudy 52 11.3 44 6.5 73 73 WSW 3 6 29.91 1013 10 16.0934 0 0
5:55 pm 17:55 Partly Cloudy 52 11.1 43 6.2 72 72 SSW 3 6 29.88 1012 10 16.0934 0 0
6:15 pm 18:15 Sunny 51 10.6 44 6.5 76 76 SW 5 7 29.91 1013 10 16.0934 0 0
6:35 pm 18:35 Sunny 49 9.7 43 6.3 80 80 SSW 5 7 29.91 1013 10 16.0934 0 0
6:55 pm 18:55 Clear 48 8.9 43 6 82 82 SSW 5 7 29.94 1014 10 16.0934 0 0
7:15 pm 19:15 Clear 47 8.2 42 5.8 85 85 S 3 6 29.94 1014 10 16.0934 0 0
7:35 pm 19:35 Clear 46 7.5 42 5.3 86 86 S 3 6 29.94 1014 10 16.0934 0 0
7:55 pm 19:55 Clear 44 6.9 41 4.9 87 87 SSW 3 6 29.94 1014 10 16.0934 0 0
8:15 pm 20:15 Clear 43 6.1 40 4.4 89 89 SSW 5 7 29.94 1014 10 16.0934 0 0
8:35 pm 20:35 Clear 43 5.9 40 4.5 91 91 S 3 6 29.97 1015 10 16.0934 0 0
8:55 pm 20:55 Clear 42 5.6 40 4.3 91 91 Calm 29.97 1015 10 16.0934 0 0
9:15 pm 21:15 Clear 43 6 41 4.9 93 93 S 3 6 29.94 1014 10 16.0934 0 0
9:35 pm 21:35 Clear 41 5.1 39 4.1 93 93 SE 3 6 29.97 1015 10 16.0934 0 0
9:55 pm 21:55 Clear 41 4.8 39 3.8 93 93 Calm 29.97 1015 10 16.0934 0 0
10:15 pm 22:15 Clear 41 5 39 4 93 93 S 6 9 29.97 1015 10 16.0934 0 0
10:35 pm 22:35 Clear 40 4.5 38 3.4 93 93 S 6 9 29.97 1015 10 16.0934 0 0
10:55 pm 22:55 Clear 41 4.8 39 3.9 94 94 SSE 5 7 29.97 1015 10 16.0934 0 0
11:15 pm 23:15 Clear 41 4.9 39 4 94 94 S 5 7 29.97 1015 10 16.0934 0 0
11:35 pm 23:35 Clear 40 4.6 38 3.6 93 93 SW 5 7 29.97 1015 10 16.0934 0 0
11:55 pm 23:55 Clear 39 4.1 38 3.2 94 94 W 5 7 29.97 1015 10 16.0934 0 0

Powered by AerisWeather